Location: Ciserano
(45.5833°N, 9.6000°E)
Time: 04:25:27
(UTC+00:00)

Lacrosse 5 - Pass Details

Date: 29 November 2020
Orbit: 713 x 726 km, 57.0° (Epoch: 22 January)

Event Time Altitude Azimuth Distance (km) Brightness Sun altitude
Exits shadow 02:52:51 18° 91° (E) 1,715 4.4 -39.0°
Drops below altitude 10° 02:54:42 10° 73° (ENE) 2,193 5.1 -38.6°
Sets 02:57:29 0° 59° (ENE) 3,117 5.9 -38.2°
